Regional Weather Roundup
Issued by NWS

Home | Current Version | Previous Version | Graphics & Text | Print | Product List | Glossary Off
Versions: 1 2 3 4 5 6 7 8 9 10 11 12 13 14 15 16 17 18 19 20 21 22 23 24 25 26 27 28 29 30 31 32 33 34 35 36 37 38 39 40 41 42 43 44 45 46 47 48 49 50

000
ASUS43 KFSD 290202
RWRSD

WEATHER ROUNDUP FOR SOUTH DAKOTA
NATIONAL WEATHER SERVICE SIOUX FALLS SD
800 PM CST SUN DEC 28 2014

NOTE: "FAIR" INDICATES FEW OR NO CLOUDS BELOW 12,000 FEET WITH NO
SIGNIFICANT WEATHER AND/OR OBSTRUCTIONS TO VISIBILITY.


SDZ001>005-009-010-012>017-290300-
NORTHWEST AND NORTH CENTRAL SOUTH DAKOTA

CITY           SKY/WX    TMP DP  RH WIND       PRES   REMARKS
BUFFALO          N/A     17  14  88 NE13      30.05R WCI   4
FAITH            N/A     17  14  88 E10       30.15R WCI   5
MOBRIDGE       CLOUDY     9   3  77 E9        30.25R WCI  -4
$$

SDZ012>016-024>037-041>051-057-063-072>074-290300-
SOUTHWEST AND SOUTH CENTRAL SOUTH DAKOTA

CITY           SKY/WX    TMP DP  RH WIND       PRES   REMARKS
RAPID CTY ARPT LGT SNOW  18  14  84 NE6       30.08R FOG     WCI  10
PIERRE         LGT SNOW  15  12  88 NE17      30.21R FOG     WCI  -1
CUSTER         LGT SNOW  15  11  83 NE8       29.90R FOG     WCI   4
ELLSWORTH AFB  FLURRIES  18  15  88 NE6       30.07R WCI   9
PHILIP         LGT SNOW  19  15  84 E12       30.15R FOG     WCI   7
PINE RIDGE     LGT SNOW  20  16  84 NE10      30.01R FOG     WCI   9
WINNER         LGT SNOW  19  14  81 E12       30.16R WCI   7
$$

SDZ004>011-016>023-039-040-290300-
NORTHEAST SOUTH DAKOTA

CITY           SKY/WX    TMP DP  RH WIND       PRES   REMARKS
ABERDEEN       MOCLDY     6  -2  69 NE13      30.34R WCI -10
WATERTOWN      CLOUDY     6   0  76 NE13      30.24R WCI -10
SISSETON         N/A      4  -1  80 N10       30.34R WCI -11
$$

SDZ017-020-022-023-036>040-048>070-290300-
SOUTHEAST SOUTH DAKOTA

CITY           SKY/WX    TMP DP  RH WIND       PRES   REMARKS
SIOUX FALLS    CLOUDY    20  16  84 NE10      30.23R WCI   9
HURON          LGT SNOW  16  12  84 NE6       30.28R FOG     WCI   7
MITCHELL       LGT SNOW  21  17  84 E8        30.25R FOG     WCI  11
YANKTON        CLOUDY    19  18  93 NE9       30.22R WCI   9
$$

ABBREVIATIONS USED IN REMARKS
   TC - TEMPERATURE IN CELSIUS
  WCI - WIND CHILL INDEX
   HX - HEAT INDEX
  VSB - VISIBILITY



USA.gov is the U.S. government's official web portal to all federal, state and local government web resources and services.